Date String (YYYY-MM-DD hh:mm:ss) UTC,Instrument flags,Ambient pressure (hPa),Sample flow (lpm),Bypass flow (lpm),Sample temperature (°C),Ambient temperature (°C),ASC tube jacket temperature (°C),LED temperature (°C),Box temperature (°C),Sample RH (%),Span deviation,Mass concentration (μg/m³),Mass concentration (μg/m³),Mass concentration (μg/m³)
DateTimeUTC,F1_M11,P_M11,Q1_M11,Q2_M11,T1_M11,T2_M11,T3_M11,T4_M11,T5_M11,U1_M11,ZSPAN_M11,X0_M11,X2_M11,X1_M11
2022-06-10 02:00:00,,0825.1,5.01,0.00,28.7,27.1,00.0,37.6,30.5,19.5,0000.0,0020.40,0005.84,0003.17
2022-06-10 02:01:00,,0825.1,5.00,0.00,28.7,27.3,00.0,37.6,30.6,19.5,0000.0,0021.12,0005.91,0003.18
2022-06-10 02:02:00,,0825.1,5.00,0.00,28.8,27.5,00.0,37.6,30.7,19.4,0000.0,0022.77,0005.95,0003.19
2022-06-10 02:03:00,,0825.2,4.98,0.00,28.8,27.7,00.0,37.6,30.8,19.3,0000.0,0023.35,0006.02,0003.20
2022-06-10 02:04:00,,0825.2,5.00,0.00,28.8,27.8,00.0,37.6,30.8,19.1,0000.0,0023.06,0006.03,0003.20
2022-06-10 02:05:00,,0825.2,5.00,0.00,28.9,28.0,00.0,37.7,30.9,19.0,0000.0,0022.99,0006.02,0003.19
2022-06-10 02:06:00,,0825.2,5.01,0.00,28.9,28.1,00.0,37.7,31.0,18.8,0000.0,0022.48,0006.02,0003.17
2022-06-10 02:07:00,,0825.2,5.00,0.00,29.0,28.2,00.0,37.7,31.0,19.1,0000.0,0022.08,0006.04,0003.17
2022-06-10 02:08:00,,0825.2,5.01,0.00,29.0,28.3,00.0,37.7,31.1,19.0,0000.0,0021.42,0005.98,0003.18
2022-06-10 02:09:00,,0825.2,4.98,0.00,29.1,27.8,00.0,37.7,31.0,19.4,0000.0,0021.57,0005.97,0003.18
2022-06-10 02:10:00,,0825.2,4.99,0.00,29.0,26.9,00.0,37.7,30.7,19.7,0000.0,0021.92,0005.97,0003.17
2022-06-10 02:11:00,,0825.2,5.01,0.00,28.9,26.6,00.0,37.6,30.6,19.9,0000.0,0022.05,0005.91,0003.16
2022-06-10 02:12:00,,0825.3,5.00,0.00,28.8,26.6,00.0,37.6,30.5,19.6,0000.0,0021.23,0005.83,0003.16
2022-06-10 02:13:00,,0825.2,5.00,0.00,28.7,26.7,00.0,37.6,30.4,19.5,0000.0,0020.05,0005.76,0003.17
2022-06-10 02:14:00,,0825.2,4.99,0.00,28.7,26.9,00.0,37.6,30.5,19.8,0000.0,0020.16,0005.69,0003.15
2022-06-10 02:15:00,,0825.3,5.00,0.00,28.7,27.1,00.0,37.6,30.5,19.8,0000.0,0020.34,0005.65,0003.15
2022-06-10 02:16:00,,0825.3,5.00,0.00,28.7,27.3,00.0,37.6,30.6,19.9,0000.0,0021.94,0005.67,0003.16
2022-06-10 02:17:00,,0825.4,5.01,0.00,28.8,27.4,00.0,37.6,30.7,19.7,0000.0,0021.98,0005.69,0003.17
2022-06-10 02:18:00,,0825.3,5.00,0.00,28.8,27.6,00.0,37.6,30.7,19.7,0000.0,0021.59,0005.64,0003.17
2022-06-10 02:19:00,,0825.4,4.99,0.00,28.8,27.8,00.0,37.6,30.8,19.7,0000.0,0021.94,0005.73,0003.17
2022-06-10 02:20:00,,0825.4,5.00,0.00,28.9,27.9,00.0,37.7,30.9,20.7,0000.0,0022.95,0005.79,0003.16
2022-06-10 02:21:00,,0825.5,4.99,0.00,28.9,28.0,00.0,37.7,30.9,20.4,0000.0,0023.45,0005.75,0003.16
2022-06-10 02:22:00,,0825.5,5.00,0.00,29.0,28.2,00.0,37.7,31.0,19.5,0000.0,0023.31,0005.73,0003.16
2022-06-10 02:23:00,,0825.4,5.00,0.00,29.0,28.3,00.0,37.7,31.1,19.6,0000.0,0022.81,0005.70,0003.16
2022-06-10 02:24:00,,0825.4,5.00,0.00,29.1,28.1,00.0,37.7,31.0,19.4,0000.0,0021.75,0005.67,0003.15
2022-06-10 02:25:00,,0825.4,5.00,0.00,29.0,27.3,00.0,37.7,30.8,18.9,0000.0,0020.55,0005.60,0003.14
2022-06-10 02:26:00,,0825.4,5.01,0.00,28.9,26.7,00.0,37.6,30.6,19.0,0000.0,0020.31,0005.61,0003.15
2022-06-10 02:27:00,,0825.4,4.99,0.00,28.8,26.5,00.0,37.6,30.5,19.9,0000.0,0018.73,0005.63,0003.15
2022-06-10 02:28:00,,0825.4,4.99,0.00,28.7,26.6,00.0,37.6,30.4,19.4,0000.0,0018.56,0005.75,0003.14
2022-06-10 02:29:00,,0825.4,5.01,0.00,28.7,26.7,00.0,37.6,30.4,20.0,0000.0,0018.79,0005.78,0003.13
2022-06-10 02:30:00,,0825.4,4.99,0.00,28.7,26.9,00.0,37.6,30.5,20.5,0000.0,0019.74,0005.79,0003.13
2022-06-10 02:31:00,,0825.4,5.00,0.00,28.7,27.1,00.0,37.6,30.5,20.3,0000.0,0019.00,0005.67,0003.12
2022-06-10 02:32:00,,0825.4,4.99,0.00,28.7,27.3,00.0,37.6,30.6,21.0,0000.0,0017.43,0005.70,0003.13
2022-06-10 02:33:00,,0825.4,4.99,0.00,28.7,27.5,00.0,37.6,30.7,20.8,0000.0,0017.30,0005.75,0003.13
2022-06-10 02:34:00,,0825.4,5.01,0.00,28.8,27.6,00.0,37.6,30.7,20.8,0000.0,0017.85,0005.86,0003.14
2022-06-10 02:35:00,,0825.4,5.00,0.00,28.8,27.8,00.0,37.6,30.8,20.6,0000.0,0017.57,0005.85,0003.12
2022-06-10 02:36:00,,0825.4,5.00,0.00,28.8,27.9,00.0,37.6,30.8,20.5,0000.0,0018.13,0005.86,0003.12
2022-06-10 02:37:00,,0825.4,5.01,0.00,28.9,28.0,00.0,37.7,30.9,20.3,0000.0,0018.22,0005.92,0003.13
2022-06-10 02:38:00,,0825.4,5.00,0.00,28.9,28.1,00.0,37.7,30.9,20.3,0000.0,0018.21,0005.90,0003.13
2022-06-10 02:39:00,,0825.4,5.00,0.00,29.0,28.2,00.0,37.7,31.0,20.2,0000.0,0018.12,0005.80,0003.13
2022-06-10 02:40:00,,0825.4,5.00,0.00,29.0,28.3,00.0,37.7,31.0,20.3,0000.0,0018.57,0005.79,0003.14
2022-06-10 02:41:00,,0825.4,5.00,0.00,29.1,28.3,00.0,37.8,31.1,20.2,0000.0,0016.83,0005.77,0003.14
2022-06-10 02:42:00,,0825.4,5.01,0.00,29.1,27.8,00.0,37.7,31.0,20.3,0000.0,0016.86,0005.76,0003.16
2022-06-10 02:43:00,,0825.4,5.01,0.00,29.0,27.3,00.0,37.7,30.8,20.8,0000.0,0017.38,0005.74,0003.15
2022-06-10 02:44:00,,0825.4,4.99,0.00,28.9,27.1,00.0,37.7,30.7,20.8,0000.0,0017.22,0005.75,0003.14
2022-06-10 02:45:00,,0825.4,4.99,0.00,28.9,27.1,00.0,37.7,30.6,21.0,0000.0,0016.80,0005.66,0003.13
2022-06-10 02:46:00,,0825.4,5.00,0.00,28.8,27.2,00.0,37.7,30.6,20.8,0000.0,0017.39,0005.67,0003.15
2022-06-10 02:47:00,,0825.4,5.00,0.00,28.8,27.3,00.0,37.7,30.7,20.7,0000.0,0017.70,0005.73,0003.16
2022-06-10 02:48:00,,0825.4,5.01,0.00,28.8,27.5,00.0,37.7,30.7,20.2,0000.0,0017.33,0005.69,0003.16
2022-06-10 02:49:00,,0825.4,5.00,0.00,28.9,27.6,00.0,37.7,30.8,20.1,0000.0,0016.69,0005.65,0003.14
2022-06-10 02:50:00,,0825.4,5.00,0.00,28.9,27.7,00.0,37.7,30.8,19.8,0000.0,0016.26,0005.63,0003.14
2022-06-10 02:51:00,,0825.3,4.99,0.00,28.9,27.9,00.0,37.7,30.9,19.8,0000.0,0016.07,0005.55,0003.13
2022-06-10 02:52:00,,0825.4,5.00,0.00,29.0,28.0,00.0,37.8,30.9,19.9,0000.0,0016.73,0005.56,0003.15
2022-06-10 02:53:00,,0825.3,5.01,0.00,29.0,28.1,00.0,37.8,31.0,20.1,0000.0,0016.71,0005.57,0003.14
2022-06-10 02:54:00,,0825.4,4.99,0.00,29.0,28.2,00.0,37.8,31.0,20.9,0000.0,0015.86,0005.57,0003.15
2022-06-10 02:55:00,,0825.3,5.00,0.00,29.1,28.3,00.0,37.8,31.1,20.7,0000.0,0015.73,0005.60,0003.16
2022-06-10 02:56:00,,0825.4,5.00,0.00,29.1,28.3,00.0,37.8,31.1,20.8,0000.0,0015.76,0005.70,0003.18
2022-06-10 02:57:00,,0825.4,4.99,0.00,29.1,27.8,00.0,37.8,30.9,20.6,0000.0,0015.25,0005.72,0003.18
2022-06-10 02:58:00,,0825.4,4.99,0.00,29.0,27.2,00.0,37.8,30.8,20.4,0000.0,0014.77,0005.67,0003.17
2022-06-10 02:59:00,,0825.4,5.01,0.00,29.0,27.0,00.0,37.7,30.7,20.7,0000.0,0015.22,0005.63,0003.17
